DateTimeUTC,F1_A11,F1_S11,BsB_S11,BsG_S11,BsR_S11,BbsB_S11,BbsG_S11,BbsR_S11,BaB_A11,BaG_A11,BaR_A11,Tu_S11,T_S11,Uu_S11,U_S11,P_S11,T1_A11
2021-07-30T08:00:00Z,00040200,20000000,,,,,,,0000.00,0000.07,0000.27,17.8,24.8,04.0,02.6,0684.0,31.0
2021-07-30T08:01:00Z,00040200,20000000,,,,,,,0000.39,-000.10,0000.10,17.8,24.8,04.0,02.6,0684.0,31.0
2021-07-30T08:02:00Z,00040200,20000000,,,,,,,0000.06,0000.24,-000.01,17.8,24.8,04.0,02.6,0684.0,31.0
2021-07-30T08:03:00Z,00040200,60000000,,,,,,,0000.88,0000.76,0000.73,17.8,24.8,04.0,02.6,0684.0,31.0
2021-07-30T08:04:00Z,00040200,40000000,0004.13,0003.13,0001.57,0000.33,0000.14,0000.53,0002.85,0002.78,0002.17,18.1,24.7,04.3,02.9,0684.8,31.0
2021-07-30T08:05:00Z,00040200,00000000,0004.17,0002.74,0001.38,0000.61,0000.50,0000.15,-000.19,-000.37,-000.29,18.2,24.7,04.8,03.2,0684.9,31.0
2021-07-30T08:06:00Z,00040200,00000000,0004.03,0002.68,0001.50,0000.22,0000.52,0000.23,0000.04,0000.25,-000.10,18.2,24.6,04.7,03.1,0684.9,31.0
2021-07-30T08:07:00Z,00040200,00000000,0003.40,0002.45,0001.46,0000.26,0000.25,0000.37,0000.86,0000.88,0000.65,18.1,24.6,04.5,03.1,0684.9,31.0
2021-07-30T08:08:00Z,00040200,00000000,0003.31,0002.75,0001.43,0000.31,0000.45,-000.02,0001.06,0000.72,0000.72,18.1,24.6,04.6,03.1,0684.9,31.0
2021-07-30T08:09:00Z,00040200,00000000,0003.59,0002.93,0001.48,0000.15,0000.53,0000.18,0000.61,0000.57,0000.53,18.1,24.5,04.7,03.2,0684.9,31.0
2021-07-30T08:10:00Z,00040200,00000000,0003.29,0002.36,0001.59,0000.64,0000.05,0000.30,0000.55,0000.77,0000.61,18.1,24.5,04.7,03.2,0684.9,31.0
2021-07-30T08:11:00Z,00040200,00000000,0003.88,0002.70,0001.70,0000.83,0000.16,0000.48,0000.98,0000.61,0000.36,18.0,24.5,04.9,03.3,0684.9,31.0
2021-07-30T08:12:00Z,00040200,00000000,0004.16,0002.93,0001.04,0000.07,0000.33,0000.29,0000.87,0000.53,0000.42,18.0,24.5,04.9,03.3,0684.9,31.0
2021-07-30T08:13:00Z,00040200,00000000,0004.20,0002.81,0001.64,0000.18,0000.42,0000.31,0000.65,0000.88,0000.83,18.0,24.5,04.9,03.3,0684.9,31.0
2021-07-30T08:14:00Z,00040200,00000000,0004.01,0002.98,0001.34,0000.08,0000.23,0000.32,0000.87,0000.79,0000.71,18.0,24.5,05.0,03.3,0684.9,31.0
2021-07-30T08:15:00Z,00040200,00000000,0003.80,0002.37,0001.62,0000.90,0000.23,0000.38,0001.01,0000.78,0000.52,18.0,24.5,05.0,03.3,0684.9,31.0
2021-07-30T08:16:00Z,00040200,00000000,0002.81,0002.51,0001.15,0000.68,0000.43,0000.25,0000.77,0000.56,0000.34,18.0,24.5,05.0,03.4,0684.9,31.0
2021-07-30T08:17:00Z,00040200,00000000,0004.27,0002.75,0001.20,0000.30,0000.40,0000.33,0000.54,0000.80,0000.40,18.1,24.5,05.1,03.4,0684.9,31.0
2021-07-30T08:18:00Z,00040200,00000000,0003.30,0002.37,0001.26,0000.17,0000.30,0000.49,0000.57,0000.18,0000.48,18.1,24.5,05.1,03.4,0684.9,31.0
2021-07-30T08:19:00Z,00040200,00000000,0003.73,0002.29,0001.26,-000.10,0000.16,0000.26,0000.42,0000.87,0000.64,18.1,24.5,05.0,03.3,0684.9,31.0
2021-07-30T08:20:00Z,00040200,00000000,0003.30,0002.31,0001.32,0000.83,0000.15,0000.20,0000.79,0000.55,0000.45,18.1,24.5,05.0,03.4,0684.9,31.0
2021-07-30T08:21:00Z,00040200,00000000,0004.10,0002.73,0001.42,0000.25,0000.43,0000.19,0000.72,0000.66,0000.37,18.1,24.5,05.1,03.4,0684.9,31.0
2021-07-30T08:22:00Z,00040200,00000000,0003.70,0002.36,0001.56,0000.36,0000.41,0000.38,0000.61,0000.32,0000.52,18.1,24.5,05.1,03.4,0684.9,31.0
2021-07-30T08:23:00Z,00040200,00000000,0003.25,0002.72,0001.23,0000.70,0000.41,0000.47,0000.51,0000.76,0000.48,18.1,24.5,05.0,03.4,0684.9,31.0
2021-07-30T08:24:00Z,00040200,00000000,0003.46,0002.37,0000.90,0000.82,0000.33,0000.18,0000.53,0000.73,0000.14,18.1,24.5,04.9,03.3,0684.9,31.0
2021-07-30T08:25:00Z,00040200,00000000,0003.46,0002.51,0001.46,0000.44,0000.29,0000.47,0000.81,0000.39,0000.84,18.0,24.4,05.1,03.4,0684.9,31.0
2021-07-30T08:26:00Z,00040200,00000000,0003.71,0002.58,0001.51,0000.32,0000.58,0000.05,0000.58,0000.45,0000.22,18.0,24.4,05.1,03.5,0684.9,31.0
2021-07-30T08:27:00Z,00040200,00000000,0003.16,0002.35,0001.33,-000.48,0000.46,0000.07,0001.19,0000.97,0000.43,18.0,24.4,05.1,03.5,0684.9,31.0
2021-07-30T08:28:00Z,00040200,00000000,0003.51,0002.40,0001.45,0000.51,0000.51,0000.12,0000.69,0000.76,0000.59,18.0,24.4,05.2,03.5,0684.9,31.0
2021-07-30T08:29:00Z,00040200,00000000,0003.25,0002.68,0001.48,0000.17,0000.27,0000.11,0000.47,0000.38,0000.36,18.0,24.4,05.1,03.5,0684.9,31.0
2021-07-30T08:30:00Z,00040200,00000000,0004.48,0002.59,0001.24,0000.08,0000.28,0000.12,0001.20,0001.19,0000.96,18.0,24.4,05.2,03.5,0684.9,31.0
2021-07-30T08:31:00Z,00040200,00000000,0002.48,0002.14,0001.19,-000.04,0000.17,0000.30,0000.66,0000.63,0000.38,18.0,24.4,05.4,03.6,0684.9,31.0
2021-07-30T08:32:00Z,00040200,00000000,0003.58,0002.61,0001.22,0000.83,0000.00,-000.05,0001.08,0001.00,0000.66,18.0,24.4,05.3,03.6,0684.9,31.0
2021-07-30T08:33:00Z,00040200,00010000,0004.08,0002.36,0001.39,0000.21,0000.14,0000.20,0000.75,0000.69,0000.51,18.0,24.4,05.6,03.8,0684.9,31.0
2021-07-30T08:34:00Z,00040200,00000000,0003.32,0002.50,0001.26,0000.78,0000.55,0000.20,0000.65,0000.71,0000.97,18.0,24.4,05.6,03.8,0684.9,31.0
2021-07-30T08:35:00Z,00040200,00000000,0004.11,0002.71,0001.32,0000.63,0000.38,0000.31,0000.78,0000.39,0000.49,18.0,24.4,05.7,03.9,0684.9,31.0
2021-07-30T08:36:00Z,00040200,00000000,0003.03,0002.66,0001.52,0000.73,0000.15,0000.25,0001.14,0001.03,0000.61,18.0,24.4,05.8,03.9,0684.9,31.0
2021-07-30T08:37:00Z,00040200,00000000,0003.02,0002.67,0001.56,0000.12,0000.50,0000.29,0000.64,0000.42,0000.35,18.0,24.4,05.9,04.0,0684.9,31.0
2021-07-30T08:38:00Z,00040200,00000000,0003.34,0002.83,0000.95,0000.79,0000.29,-000.00,0000.56,0000.98,0000.69,18.0,24.4,05.9,04.0,0684.9,31.0
2021-07-30T08:39:00Z,00040200,00000000,0003.37,0002.29,0001.21,0001.06,0000.16,0000.18,0000.89,0000.45,0000.16,18.0,24.4,05.9,04.0,0684.9,31.0
2021-07-30T08:40:00Z,00040200,00000000,0003.21,0002.78,0001.69,0000.93,0000.57,0000.41,0001.09,0001.20,0001.10,18.0,24.4,06.0,04.0,0684.9,31.0
2021-07-30T08:41:00Z,00040200,00000000,0003.60,0002.83,0001.63,0000.19,0000.52,0000.32,0000.30,0000.44,0000.56,18.0,24.4,06.1,04.1,0684.9,31.0
2021-07-30T08:42:00Z,00040200,00000000,0003.81,0002.64,0001.36,-000.05,0000.42,0000.31,0000.93,0000.91,0000.26,17.9,24.3,06.1,04.1,0684.9,31.0
2021-07-30T08:43:00Z,00040200,00000000,0003.40,0002.42,0001.48,0000.44,0000.37,0000.26,0000.95,0000.74,0000.52,17.9,24.3,06.1,04.1,0684.9,31.0
2021-07-30T08:44:00Z,00040200,00000000,0003.23,0002.31,0001.20,0000.13,0000.15,0000.11,0000.59,0000.59,0000.55,17.9,24.3,06.2,04.2,0684.9,31.0
2021-07-30T08:45:00Z,00040200,00000000,0003.92,0002.87,0001.55,0000.35,0000.49,0000.55,0001.09,0000.40,0000.68,17.9,24.3,06.2,04.2,0684.8,31.0
2021-07-30T08:46:00Z,00040200,00000000,0003.95,0002.53,0001.32,0000.37,0000.44,-000.03,0000.27,0000.83,0000.53,18.0,24.3,06.3,04.3,0684.8,31.0
2021-07-30T08:47:00Z,00040200,00000000,0003.85,0002.63,0001.63,0000.33,0000.38,0000.10,0000.73,0000.60,0000.38,18.0,24.4,06.3,04.3,0684.8,31.0
2021-07-30T08:48:00Z,00040200,00000000,0003.76,0002.13,0001.32,0000.34,0000.54,0000.09,0000.58,0000.59,0000.38,18.0,24.4,06.3,04.3,0684.8,31.0
2021-07-30T08:49:00Z,00040200,00000000,0003.98,0002.60,0001.07,-000.09,0000.19,0000.14,0001.05,0000.94,0000.57,18.0,24.3,06.4,04.3,0684.8,31.0
2021-07-30T08:50:00Z,00040200,00000000,0003.84,0002.91,0001.42,0000.71,0000.55,0000.01,0000.56,0000.48,0000.55,18.0,24.4,06.3,04.3,0684.8,31.0
2021-07-30T08:51:00Z,00040200,00000000,0003.69,0002.45,0001.43,0000.21,0000.48,0000.43,0001.05,0000.70,0000.44,18.0,24.4,06.4,04.3,0684.8,31.0
2021-07-30T08:52:00Z,00040200,00000000,0004.15,0002.65,0001.24,0000.79,0000.52,0000.22,0000.47,0000.40,0000.34,18.0,24.3,06.3,04.3,0684.8,31.0
2021-07-30T08:53:00Z,00040200,00000000,0003.72,0002.34,0001.31,-000.25,0000.35,-000.15,0001.23,0000.94,0000.44,18.0,24.3,06.4,04.4,0684.8,31.0
2021-07-30T08:54:00Z,00040200,00000000,0003.08,0002.67,0001.42,0000.60,0000.36,0000.07,0000.37,0000.66,0001.12,18.0,24.3,06.5,04.4,0684.8,31.0
2021-07-30T08:55:00Z,00040200,00000000,0003.21,0002.54,0001.45,0000.61,0000.33,0000.18,0000.43,0000.28,0000.24,18.0,24.3,06.5,04.4,0684.8,31.0
2021-07-30T08:56:00Z,00040200,00000000,0003.26,0002.49,0001.53,0000.59,0000.18,0000.29,0001.44,0001.15,0000.62,17.9,24.3,06.5,04.4,0684.8,31.0
2021-07-30T08:57:00Z,00040200,40000000,,,,,,,-001.24,-000.70,-000.34,18.0,24.3,06.8,04.6,0684.8,30.9
2021-07-30T08:58:00Z,00040200,60000000,,,,,,,0000.34,0000.22,0000.00,17.7,24.4,06.3,04.1,0683.8,31.0
2021-07-30T08:59:00Z,00040200,20000000,,,,,,,0000.73,0000.47,0000.19,17.7,24.5,06.2,04.1,0683.8,31.0
